Overview Statistics Trail Chart Weather Telemetry Raw packets
 

This is the latest recevied weather packets stored in our database for station/object KE5QKR. If no packets are shown the sender has not sent any weather packets the latest 10 day(s).

<< 17 18 19 20 21 22 23 >>
Time Temp. Humidity Pressure Rain* Wind** Luminosity Snow
1777857523 16.11° C 81% 1016.6 hPa 0 mm - 0 W/m² -
1777857219 16.67° C 80% 1016.6 hPa 1.27 mm - 0 W/m² -
1777856915 16.67° C 79% 1016.6 hPa 1.27 mm - 0 W/m² -
1777856611 16.67° C 77% 1016.4 hPa 0 mm - 0 W/m² -
1777856308 17.22° C 74% 1016.5 hPa 0 mm - 0 W/m² -
1777856004 17.22° C 74% 1016.4 hPa 0 mm - 0 W/m² -
1777855702 17.78° C 73% 1016.4 hPa 0 mm - 1 W/m² -
1777855400 17.78° C 71% 1016.4 hPa 0 mm - 1 W/m² -
1777855095 18.33° C 72% 1016.5 hPa 0 mm - 2 W/m² -
1777854793 18.89° C 70% 1016.2 hPa 0 mm - 4 W/m² -
1777854489 18.89° C 69% 1016.4 hPa 0 mm - 6 W/m² -
1777854186 18.89° C 63% 1016.3 hPa 0 mm - 9 W/m² -
1777853884 19.44° C 64% 1016.2 hPa 0 mm - 12 W/m² -
1777853581 19.44° C 67% 1016.5 hPa 0 mm - 14 W/m² -
1777853278 20° C 63% 1016.1 hPa 0 mm - 17 W/m² -
1777852974 20.56° C 59% 1016.2 hPa 0 mm - 20 W/m² -
1777852672 20.56° C 61% 1016.1 hPa 0 mm - 22 W/m² -
1777852370 21.67° C 58% 1015.8 hPa 0 mm - 24 W/m² -
1777852067 22.22° C 53% 1016.2 hPa 0 mm - 26 W/m² -
1777851765 22.78° C 48% 1016.1 hPa 0 mm - 28 W/m² -
1777851462 22.78° C 44% 1016.3 hPa 0 mm - 30 W/m² -
1777851158 22.78° C 44% 1016.3 hPa 0 mm - 31 W/m² -
1777850855 22.78° C 43% 1016.2 hPa 0 mm - 33 W/m² -
1777850552 22.78° C 44% 1016.3 hPa 0 mm - 34 W/m² -
1777850250 23.33° C 41% 1016.4 hPa 0 mm - 35 W/m² -

* Rain latest hour (hover to see other rain measurements)
** Current wind speed in m/s (hover to see current wind gust speed)